TJS-2 (41911 NORAD) Tracking and Keplerian Element Data

This shows tracking and keplerian element data for the satellite.

Feedback or suggestion? Click here.




ElementValue
Catalog41911
NameTJS-2
Epoch Orbit2109
Epoch Day270.14354698
Epoch Year2022
RAAN287.3894
Inclination0.2146
Eccentricity0.0005827
Argument of Perigee281.6197
Mean Anonmoly275.104
Mean Motion1.00273315
Decay Rate-4E-08
L11 41911U 17001A 22270.14354698 -.00000004 00000+0 00000+0 0 9991
L22 41911 0.2146 287.3894 0005827 281.6197 275.1040 1.00273315 21091

Live tracking and technical data element details for TJS-2 (NORAD 41911). TJS-2 can be tracked NOW for your location showing map with azimuth and elevation plus other details from your city location.

Track the satellite on the map from your city or location and see movement details for azimuth, elevation, latitude, longitude, range, height, and movement on the map or in text.







IsCatalogInMostPopularTable: catalog: 41911, numindb: 656
Update: records affected: 1



GetName: 41911 TJS-2

Hit Count: updated at: Wed, 28 Sep 2022 23:32:07 GMT